This demonstration page uses our WeatherBlox Daily Observations layout. Learn more.

Left ArrowRight Arrow

Hourly Observations for May 22, 2020

Temp ( °F °C ) Dew Point ( °F °C ) Humidity (%) Winds ( mph kmh ) Pressure ( in mb ) Visibility ( mi km ) Precip ( " mm )
12:54 am 00:54 Cloudy 63 17.2 59 15 87 87 SE 5 7 29.91 1013 10 16.0934 0.01 0.254
1:27 am 01:27 Cloudy 63 17.2 59 15 87 87 Calm 29.91 1013 10 16.0934 0 0
1:54 am 01:54 Cloudy with Light Rain 63 17.2 59 15 87 87 SSE 6 9 29.9 1013 10 16.0934 0.001 0.001
2:01 am 02:01 Cloudy with Light Rain 63 17.2 59 15 87 87 S 5 7 29.91 1013 10 16.0934 0.001 0.001
2:54 am 02:54 Cloudy 62 16.7 59 15 90 90 SSE 5 7 29.88 1012 9 14.48406 0.02 0.508
3:39 am 03:39 Cloudy 62 16.7 59 15 90 90 ESE 5 7 29.88 1012 9 14.48406 0 0
3:54 am 03:54 Cloudy 63 17.2 59 15 87 87 ESE 5 7 29.87 1012 9 14.48406 0 0
4:54 am 04:54 Cloudy 62 16.7 59 15 90 90 E 5 7 29.85 1011 8 12.87472 0 0
5:54 am 05:54 Cloudy with Mist and Fog 62 16.7 59 15 90 90 SE 13 20 29.83 1010 6 9.65604 0 0
6:09 am 06:09 Cloudy with Mist and Fog 61 16.1 59 15 93 93 SE 12 19 29.84 1011 6 9.65604 0 0
6:54 am 06:54 Cloudy with Mist and Fog 61 16.1 59 15 93 93 ESE 8 13 29.86 1011 4 6.43736 0 0
7:54 am 07:54 Cloudy with Mist and Fog 61 16.1 59 15 93 93 SE 7 11 29.88 1012 4 6.43736 0 0
8:54 am 08:54 Cloudy with Mist and Fog 62 16.7 59 15 90 90 E 9 15 29.87 1011 5 8.0467 0 0
9:54 am 09:54 Cloudy with Mist and Fog 62 16.7 59 15 90 90 E 9 15 29.87 1011 6 9.65604 0 0
10:31 am 10:31 Cloudy with Mist and Fog 62 16.7 59 15 90 90 E 6 9 29.86 1011 5 8.0467 0 0
10:54 am 10:54 Cloudy with Mist and Fog 63 17.2 59 15 87 87 ESE 7 11 29.86 1011 6 9.65604 0 0
11:54 am 11:54 Cloudy 64 17.8 59 15 84 84 ESE 7 11 29.85 1011 7 11.26538 0.01 0.254
12:23 pm 12:23 Cloudy 64 17.8 59 15 84 84 E 8 13 29.84 1010 8 12.87472 0 0
12:26 pm 12:26 Cloudy 64 17.8 59 15 84 84 ESE 8 13 29.84 1010 8 12.87472 0 0
12:41 pm 12:41 Cloudy with Light Rain 64 17.8 60 15.6 87 87 E 7 11 29.83 1010 8 12.87472 0.001 0.001
12:54 pm 12:54 Cloudy with Light Rain 64 17.8 59 15 84 84 E 8 13 29.83 1010 8 12.87472 0.001 0.001
1:26 pm 13:26 Cloudy with Heavy Rain 63 17.2 60 15.6 90 90 ENE 8 13 29.83 1010 1.75 2.816345 0.05 1.27
1:41 pm 13:41 Cloudy with Heavy Rain 63 17.2 60 15.6 90 90 ENE 8 13 29.82 1010 1 1.60934 0.19 4.826
1:54 pm 13:54 Cloudy with Rain 63 17.2 61 16.1 93 93 ENE 7 11 29.82 1010 2 3.21868 0.24 6.096
2:01 pm 14:01 Cloudy with Rain 63 17.2 61 16.1 93 93 ENE 6 9 29.82 1010 2 3.21868 0.01 0.254
2:08 pm 14:08 Cloudy with Rain 64 17.8 61 16.1 90 90 NE 8 13 29.81 1009 2 3.21868 0.04 1.016
2:12 pm 14:12 Cloudy with Light Rain 64 17.8 61 16.1 90 90 NE 7 11 29.81 1009 2 3.21868 0.04 1.016
2:27 pm 14:27 Cloudy with Light Rain 64 17.8 61 16.1 90 90 NE 9 15 29.8 1009 2.5 4.02335 0.06 1.524
2:36 pm 14:36 Cloudy with Light Rain 64 17.8 61 16.1 90 90 ENE 8 13 29.8 1009 3 4.82802 0.06 1.524
2:50 pm 14:50 Cloudy with Mist and Fog 64 18 63 17 94 94 E 9 15 29.8 1009 4 6.43736 0.06 1.524
2:54 pm 14:54 Cloudy with Mist and Fog 65 18.3 61 16.1 87 87 ENE 12 19 29.8 1009 4 6.43736 0.06 1.524
3:10 pm 15:10 Cloudy with Mist and Fog 65 18.3 62 16.7 90 90 E 6 9 29.79 1009 5 8.0467 0 0
3:54 pm 15:54 Cloudy 66 18.9 61 16.1 84 84 E 8 13 29.78 1008 8 12.87472 0 0
4:26 pm 16:26 Cloudy 66 18.9 61 16.1 84 84 E 10 17 29.75 1008 7 11.26538 0 0
4:54 pm 16:54 Cloudy 67 19.4 61 16.1 81 81 E 13 20 29.75 1007 7 11.26538 0 0
5:54 pm 17:54 Cloudy 66 18.9 61 16.1 84 84 ENE 13 20 29.73 1007 9 14.48406 0 0
6:33 pm 18:33 Cloudy with Heavy Rain 65 18.3 61 16.1 87 87 NE 16 26 29.7 1006 1.75 2.816345 0.01 0.254
6:41 pm 18:41 Cloudy with Heavy Rain 64 17.8 62 16.7 93 93 NNE 13 20 29.7 1006 0.75 1.207005 0.14 3.556
6:51 pm 18:51 Cloudy with Rain 64 18 61 16 88 88 NNE 15 24 29.7 1006 1.75 2.816345 0.3 7.62
6:54 pm 18:54 Cloudy with Light Rain 64 17.8 61 16.1 90 90 NNE 16 26 29.7 1006 3 4.82802 0.31 7.874
7:03 pm 19:03 Cloudy with Rain 64 17.8 61 16.1 90 90 NNE 20 31 29.69 1005 3 4.82802 0.001 0.001
7:05 pm 19:05 Cloudy with Nearby Thunderstorms 64 17.8 61 16.1 90 90 NNE 17 28 29.69 1005 2.5 4.02335 0.01 0.254
7:12 pm 19:12 Cloudy with Nearby Thunderstorms 64 17.8 61 16.1 90 90 NNE 18 30 29.69 1005 5 8.0467 0.02 0.508
7:32 pm 19:32 Cloudy with Nearby Thunderstorms 65 18.3 61 16.1 87 87 NNE 17 28 29.67 1005 2.5 4.02335 0.04 1.016
7:47 pm 19:47 Cloudy with Thunderstorms 64 17.8 61 16.1 90 90 NNE 20 31 29.68 1005 3 4.82802 0.07 1.778
7:54 pm 19:54 Cloudy with Thunderstorms 64 17.8 61 16.1 90 90 NNE 23 37 29.67 1005 4 6.43736 0.07 1.778
8:10 pm 20:10 Cloudy with Heavy Thunderstorms 62 16.7 59 15 90 90 E 15 24 29.71 1006 2 3.21868 0.02 0.508
8:17 pm 20:17 Cloudy with Heavy Thunderstorms 61 16.1 58 14.4 90 90 E 12 19 29.69 1006 1.25 2.011675 0.26 6.604
8:26 pm 20:26 Cloudy with Heavy Thunderstorms 61 16.1 58 14.4 90 90 ENE 13 20 29.7 1006 2 3.21868 0.5 12.7
8:35 pm 20:35 Cloudy with Heavy Thunderstorms 60 15.6 58 14.4 93 93 E 5 7 29.7 1006 1.75 2.816345 0.62 15.748
8:51 pm 20:51 Cloudy with Heavy Thunderstorms 61 16 57 14 88 88 NNW 5 7 29.69 1006 1 1.60934 1.01 25.654
8:54 pm 20:54 Cloudy with Heavy Rain 60 15.6 58 14.4 93 93 NNE 6 9 29.7 1006 1 1.60934 1.1 27.94
8:58 pm 20:58 Cloudy with Nearby Thunderstorms 60 15.6 58 14.4 93 93 WSW 6 9 29.69 1005 1.75 2.816345 0.04 1.016
9:04 pm 21:04 Cloudy with Nearby Thunderstorms 60 15.6 58 14.4 93 93 VRB 3 6 29.7 1006 3 4.82802 0.12 3.048
9:16 pm 21:16 Cloudy with Nearby Thunderstorms 60 15.6 58 14.4 93 93 W 5 7 29.7 1006 10 16.0934 0.12 3.048
9:33 pm 21:33 Cloudy 63 17.2 60 15.6 90 90 NNE 15 24 29.68 1005 9 14.48406 0.12 3.048
9:41 pm 21:41 Cloudy with Nearby Thunderstorms 64 17.8 60 15.6 87 87 NNE 18 30 29.68 1005 8 12.87472 0.12 3.048
9:54 pm 21:54 Cloudy with Nearby Thunderstorms 64 17.8 60 15.6 87 87 NNE 17 28 29.69 1006 8 12.87472 0.12 3.048
10:04 pm 22:04 Cloudy with Light Rain 64 17.8 60 15.6 87 87 NNE 16 26 29.69 1005 9 14.48406 0.001 0.001
10:18 pm 22:18 Cloudy with Nearby Thunderstorms 64 17.8 60 15.6 87 87 N 17 28 29.7 1006 9 14.48406 0.001 0.001
10:32 pm 22:32 Cloudy with Light Rain 64 17.8 60 15.6 87 87 N 21 33 29.7 1006 9 14.48406 0.001 0.001
10:54 pm 22:54 Cloudy with Light Rain 63 17.2 60 15.6 90 90 N 22 35 29.7 1006 7 11.26538 0.001 0.001
11:41 pm 23:41 Cloudy 64 17.8 60 15.6 87 87 N 15 24 29.71 1006 10 16.0934 0.07 1.778
11:51 pm 23:51 Cloudy 63 17 61 16 94 94 N 14 22 29.71 1006 9 14.48406 0.07 1.778
11:54 pm 23:54 Cloudy 63 17.2 60 15.6 90 90 N 12 19 29.72 1006 9 14.48406 0.07 1.778

Powered by AerisWeather